www.pogodaiklimat.ru

Погода и климат >> Архив погоды >> Канада >> Нунавут >> Исачсен


ПОГОДА в Исачсене

  • Прогноз погоды в Исачсене
  • Монитор погоды в Исачсене

АРХИВ ПОГОДЫ в Исачсене

Время (UTC), дата Ветер
(напр.,м/с)
 
Видим.   Явления Облачность Т
(С)
Тd
(С)
f
(%)
Тe
(С)
Тes
(С)
Комфортность P
(гПа)
Po
(гПа)
Тmin
(С)
Tmax
(С)
R
(мм)
R24
(мм)
S
(см)
06 15.04 С 2 н/о н/о -29.7 -32.4 77 -37 -37 опасность
обморожения
1014.0 1005.9 -32.2 -29.0
09 15.04 С 2 н/о н/о -30.1 -32.9 76 -38 -38 опасность
обморожения
1013.6 1005.5
12 15.04 С 2 н/о н/о -30.8 -33.7 76 -39 -39 опасность
обморожения
1013.1 1005.0 -30.8 -29.0 8
15 15.04 С 4 н/о н/о -31.0 -33.9 76 -43 -43 опасность
обморожения
1012.2 1004.1
18 15.04 СВ 4 н/о н/о -30.2 -33.1 76 -41 -41 опасность
обморожения
1011.7 1003.6 -31.2 -29.7
21 15.04 С 7 н/о н/о -28.8 -31.5 77 -43 -43 опасность
обморожения
1011.6 1003.5
00 16.04 З 3 н/о н/о -28.1 -30.7 78 -37 -37 опасность
обморожения
1012.0 1003.9 -31.0 -28.1
03 16.04 З 6 н/о н/о -27.2 -29.8 78 -40 -40 опасность
обморожения
1011.3 1003.3
06 16.04 С 5 н/о н/о -28.2 -30.7 79 -40 -40 опасность
обморожения
1010.8 1002.8 -31.0 -27.0 1
09 16.04 СЗ 4 н/о н/о -29.6 -32.3 77 -40 -40 опасность
обморожения
1011.6 1003.5
12 16.04 С 2 н/о н/о -31.5 -34.5 75 -39 -39 опасность
обморожения
1012.0 1003.9 -31.6 -27.0 8
15 16.04 В 1 н/о н/о -31.3 -34.3 75 -36 -36 опасность
обморожения
1011.7 1003.6
18 16.04 С 7 н/о н/о -29.8 -32.8 75 -44 -44 опасность
обморожения
1011.9 1003.9 -31.6 -28.2
21 16.04 СЗ 5 н/о н/о -26.9 -29.6 78 -38 -38 опасность
обморожения
1013.0 1005.0
00 17.04 СЗ 6 н/о н/о -25.8 -28.2 80 -38 -38 опасность
обморожения
1013.9 1005.8 -31.6 -25.8
03 17.04 С 6 н/о н/о -25.1 -27.4 81 -37 -37 опасность
обморожения
1013.7 1005.7
06 17.04 З 1 н/о н/о -25.4 -27.6 82 -26 -26 1013.6 1005.6 -31.6 -25.1 7
09 17.04 В 1 н/о н/о -25.9 -28.2 81 -30 -30 1013.2 1005.2
12 17.04 штиль 0 н/о н/о -26.6 -29.0 80 -27 -27 1012.9 1004.9 -26.6 -25.1 9
15 17.04 штиль 0 н/о н/о -27.1 -29.6 79 -27 -27 1011.8 1003.8
18 17.04 штиль 0 н/о н/о -26.7 -29.1 80 -27 -27 1011.1 1003.1 -29.8 -25.4
21 17.04 С 1 н/о н/о -24.0 -26.3 81 -25 -25 1011.4 1003.4
00 18.04 ЮВ 1 н/о н/о -21.3 -23.3 84 -22 -22 1011.6 1003.7 -27.1 -21.3
03 18.04 ЮВ 3 н/о н/о -21.5 -23.4 85 -29 -29 1011.9 1003.9
06 18.04 В 4 н/о н/о -25.9 -28.0 82 -36 -36 опасность
обморожения
1012.4 1004.4 -27.1 -20.9
09 18.04 В 2 н/о н/о -29.8 -32.2 80 -36 -36 опасность
обморожения
1013.6 1005.6
12 18.04 В 2 н/о н/о -31.0 -33.6 78 -37 -37 опасность
обморожения
1014.0 1006.0 -31.0 -20.9 10
15 18.04 В 1 н/о н/о -30.2 -33.0 76 -31 -31 опасность
обморожения
1014.4 1006.4
18 18.04 З 1 н/о н/о -28.7 -31.5 77 -30 -30 1014.1 1006.1 -31.1 -25.9
21 18.04 ЮЗ 3 н/о н/о -25.3 -27.9 79 -33 -33 опасность
обморожения
1014.2 1006.2
00 19.04 ЮЗ 3 н/о н/о -27.7 -30.2 79 -37 -37 опасность
обморожения
1013.7 1005.6 -31.1 -25.3
03 19.04 ЮЗ 3 н/о н/о -27.4 -29.9 79 -37 -37 опасность
обморожения
1012.2 1004.2
06 19.04 ЮЗ 3 н/о н/о -27.4 -30.0 78 -37 -37 опасность
обморожения
1010.9 1002.9 -31.1 -25.3
09 19.04 Ю 2 н/о н/о -27.9 -30.5 78 -34 -34 опасность
обморожения
1010.3 1002.3
12 19.04 Ю 2 н/о н/о -28.0 -30.6 78 -35 -35 опасность
обморожения
1009.9 1001.9 -28.0 -25.3 11
15 19.04 ЮВ 1 н/о н/о -27.9 -30.6 78 -32 -32 опасность
обморожения
1010.3 1002.3
18 19.04 В 1 н/о н/о -24.9 -27.5 79 -29 -29 1011.2 1003.2 -28.7 -24.9
21 19.04 Ю 2 н/о н/о -23.2 -25.5 81 -30 -30 1012.6 1004.6
00 20.04 ЮВ 1 н/о н/о -20.1 -22.2 83 -21 -21 1013.8 1005.8 -28.1 -20.1
03 20.04 ЮВ 1 н/о н/о -21.1 -23.1 84 -24 -24 1014.2 1006.2
06 20.04 З 2 н/о н/о -23.2 -25.4 82 -28 -28 1014.1 1006.1 -28.1 -20.1
09 20.04 ЮЗ 4 н/о н/о -27.3 -29.6 81 -37 -37 опасность
обморожения
1013.6 1005.6
12 20.04 ЮЗ 1 н/о н/о -27.4 -29.9 79 -31 -31 опасность
обморожения
1013.2 1005.2 -27.5 -20.1 12
15 20.04 С 9 н/о н/о -25.9 -28.4 79 -41 -41 опасность
обморожения
1012.4 1004.5
18 20.04 СЗ 8 н/о н/о -22.8 -25.0 82 -36 -36 опасность
обморожения
1012.2 1004.3 -27.5 -22.8
21 20.04 С 6 н/о н/о -21.8 -23.8 84 -33 -33 опасность
обморожения
1012.4 1004.4
00 21.04 С 2 н/о н/о -21.7 -23.6 85 -28 -28 1012.6 1004.6 -27.5 -21.7
03 21.04 В 2 н/о н/о -21.8 -23.7 85 -27 -27 1013.0 1005.0
06 21.04 ЮВ 2 н/о н/о -22.0 -24.0 84 -27 -27 1013.6 1005.7 -27.5 -21.7 16
09 21.04 ЮВ 1 н/о н/о -23.1 -25.1 84 -24 -24 1014.5 1006.6
12 21.04 ЮВ 3 н/о н/о -24.4 -26.6 82 -33 -33 опасность
обморожения
1015.6 1007.6 -24.4 -21.7 15
15 21.04 В 1 н/о н/о -24.7 -26.9 82 -28 -28 1016.5 1008.5
18 21.04 С 2 н/о н/о -24.0 -26.3 81 -29 -29 1017.2 1009.2 -24.9 -22.0
21 21.04 СЗ 1 н/о н/о -22.8 -24.9 83 -26 -26 1018.2 1010.2
00 22.04 С 5 н/о н/о -24.0 -26.0 83 -35 -35 опасность
обморожения
1018.0 1010.0 -24.9 -22.3
03 22.04 С 8 н/о н/о -24.9 -27.0 83 -39 -39 опасность
обморожения
1017.4 1009.4

 

Местоположение метеостанции Исачсен (Нунавут, Канада): широта 78.78 долгота -103.50 высота над уровнем моря 58 м.

В архиве по умолчанию представлена погода в Исачсене за последнюю неделю. Архивные данные за месяц целиком и за предыдущие месяцы, начиная с января 2011 года, Вы можете получить, выбрав интересующий диапазон дат из раскрывающегося списка и нажав кнопку "Ввод!".


*Определитесь, кто Вы:
робот инопланетянин человек

Внимание! Время в таблицах - всемирное. Для получения местного времени необходимо прибавить поправку, которая равна -6 ч.

Смотрите также архив погоды в соседних городах и на ближайших метеорологических станциях:

Погода в Сарнии (Онтарио, Канада) (111 км)
Погода в Юрике (Нунавут, Канада) (382 км)
Погода в Юрике (Нунавут, Канада) (383 км)
Погода в Моулд Бэй (Северо-Западные территории, Канада) (472 км)
Погода в Ресольют Бэй (Нунавут, Канада) (500 км)
Погода в Аэропорту Ресольют Бэй (Нунавут, Канада) (500 км)
Погода на Острове Стефанссон (Нунавут, Канада) (559 км)
Погода в Национальном парке Олавик (Северо-Западные территории, Канада) (666 км)
Погода в Kitsissut (Гренландия) (751 км)
Погода в Mittarfik Qaanaaq (Гренландия) (782 км)

Пояснения к столбцам:

Ветер - указаны скорость ветра в м/с - средняя за 10 мин, порывы в срок и между сроками (в фигурных скобках) и направление, откуда дует ветер: С - северный, СВ - северо-восточный, В - восточный, ЮВ - юго-восточный, Ю - южный, ЮЗ - юго-западный, З - западный, СЗ - северо-западный.
Видимость - горизонтальная дальность видимости в метрах или километрах. При видимости от 1 до 10 км при отсутствии осадков обычно наблюдается дымка, при ухудшении видимости до 1 км и менее - туман. В сухую погоду видимость может ухудшаться дымом, пылью или мглою.
Явления - указаны атмосферные явления, наблюдавшиеся в срок или в последний час перед сроком; фигурными скобками обозначены явления, наблюдавшиеся между сроками (за 1-3 часа до срока); квадратными скобками обозначены град или гололедные отложения с указанием их диаметра в мм.
Облачность - указаны через наклонную черту общая и нижняя облачность в баллах и высота нижней границы облаков в метрах; квадратными скобками обозначены формы облаков: Ci - перистые, Cs - перисто-слоистые, Cc - перисто-кучевые, Ac - высококучевые, As - высокослоистые, Sc - слоисто-кучевые, Ns - слоисто-дождевые, Cu - кучевые, Cb - кучево-дождевые. Подробнее классификацию облаков см. в Атласе облаков (PDF).
T - Температура воздуха - температура, измеренная на высоте 2 м над землей.
Td - Температура точки росы - температура, при понижении до которой содержащийся в воздухе водяной пар достигнет насыщения.
f - Относительная влажность воздуха - влажноcть воздуха, измеренная на высоте 2 м над землей.
Te - Эффективная температура - температура, которую ощущает одетый по сезону человек в тени. Характеристика душности погоды. При расчете учитывается влияние влажности воздуха и скорости ветра на теплоощущения человека.
Tes - Эффективная температура на солнце - температура, которую ощущает человек, с поправкой на солнечный нагрев. Характеристика знойности погоды. Зависит от высоты солнца над горизонтом, облачности и скорости ветра. Ночью, в пасмурную погоду, а также при ветре 12 м/с и более поправка равна нулю.
P - Атмосферное давление - приведенное к уровню моря атмосферное давление.
Po - Атмосферное давление - измеренное на уровне метеостанции атмосферное давление.
Tmin - Минимальная температура - минимум температуры воздуха на высоте 2 м над землей.
Tmax - Максимальная температура - максимум температуры воздуха на высоте 2 м над землей.
R - Количество осадков - Количество выпавших осадков за период времени, мм. При наведении курсора мыши на число - период времени, за который выпало указанное количество осадков.
R24 - Количество осадков - Количество выпавших осадков за 24 часа, мм.
S - Снежный покров - Высота снежного покрова, см. При наведении курсора мыши на число - состояние снежного покрова и степень покрытия местности в баллах.